Volver al catálogo

CZ-6A DEB

ActivoPO
NORAD 61290·DEBRIS·🇨🇳 China

Lanzado Aug 6, 2024 desde Taiyuan Satellite Launch Center

Loading…

Próximos Pases (próximas 24 horas)

TLE

ActualizadoSource: Space-Track

Época: Sep 14, 2026, 18:30 UTC

1 61290U 24140TB  26257.77118478  .00000228  00000-0  90732-4 0  9991
2 61290  88.9926 263.5520 0017832 253.3729 106.5506 14.25251552106414

Sigue CZ-6A DEB en tiempo real con AllMySat

Download on the App Store